Kodiak, AK

10:11 PM AKST on November 18, 2017 (GMT -0900)
Kodiak

Weather History for PADQ - October, 2012

Change the Weather History Date:

Monday, October 22, 2012

  Actual Average Record
Temperature  
Mean Temperature 33 °F 39 °F  
Max Temperature 41 °F 45 °F 55 °F (1936)
Min Temperature 24 °F 33 °F 19 °F (1966)
Degree Days  
Heating Degree Days 32 26  
Month to date heating degree days 516 514  
Since 1 July heating degree days 1746 1615  
Cooling Degree Days 0 0  
Month to date cooling degree days 0 0  
Year to date cooling degree days 0 1  
Moisture  
Dew Point 24 °F    
Average Humidity 0    
Maximum Humidity 0    
Minimum Humidity 0    
Precipitation  
Precipitation T in 0.26 in 2.22 in (2009)
Month to date precipitation 4.55 5.99  
Year to date precipitation 47.60 60.13  
Snow  
Snow T in 0.10 in 3.60 in (1982)
Month to date snowfall 0.2 0.5  
Since 1 July snowfall 0.2 0.5  
Since 1 September snowfall 0.2 0.5  
Snow Depth 0.00 in    
Sea Level Pressure  
Sea Level Pressure 30.24 in    
Wind  
Wind Speed 6 mph (WNW)    
Max Wind Speed 12 mph    
Max Gust Speed 16 mph    
Visibility 10 miles    
Events      
T = Trace of Precipitation, MM = Missing Value Source: NWS Daily Summary

Daily Weather History Graph

Daily Weather History Graph

Search for Another Location

Airport or City:

Trip Planner

Search our weather history database for the weather conditions in past years. The results will help you decide how hot, cold, wet, or windy it might be!

Date:

Astronomy

Oct. 22, 2012 Rise Set
Actual Time 9:01 AM AKDT 6:45 PM AKDT
Civil Twilight 8:21 AM AKDT 7:25 PM AKDT
Nautical Twilight 7:36 AM AKDT 8:11 PM AKDT
Astronomical Twilight 6:50 AM AKDT 8:56 PM AKDT
Moon 4:15 PM AKDT (10/22) 12:35 AM AKDT (10/22)
Length of Visible Light 11h 04m
Length of Day
9h 43m
First Quarter, 58% of the Moon is Illuminated
Oct 22
First Quarter
Oct 29
Full
Nov 6
Last Quarter
Nov 13
New
Nov 20
First Quarter

Hourly Weather History & Observations

Time (AKDT) Temp. Windchill Dew Point Humidity Pressure Visibility Wind Dir Wind Speed Gust Speed Precip Events Conditions
12:53 AM 25.0 °F 17.1 °F 19.0 °F 78% 30.27 in 10.0 mi West 6.9 mph - N/A   Scattered Clouds
1:53 AM 26.1 °F 20.5 °F 19.0 °F 75% 30.26 in 10.0 mi West 4.6 mph - N/A   Scattered Clouds
2:53 AM 24.1 °F 17.0 °F 18.0 °F 77% 30.27 in 10.0 mi West 5.8 mph - N/A   Scattered Clouds
3:53 AM 25.0 °F 17.1 °F 18.0 °F 75% 30.26 in 10.0 mi WNW 6.9 mph - N/A   Scattered Clouds
4:53 AM 26.1 °F 19.4 °F 19.9 °F 78% 30.26 in 10.0 mi West 5.8 mph - N/A   Partly Cloudy
5:53 AM 26.1 °F 19.4 °F 19.9 °F 78% 30.26 in 10.0 mi West 5.8 mph - N/A   Partly Cloudy
6:53 AM 25.0 °F 18.1 °F 21.0 °F 85% 30.26 in 10.0 mi NW 5.8 mph - N/A   Scattered Clouds
7:53 AM 27.0 °F 21.6 °F 23.0 °F 85% 30.26 in 10.0 mi West 4.6 mph - N/A   Scattered Clouds
8:53 AM 25.0 °F 20.7 °F 21.9 °F 88% 30.26 in 10.0 mi West 3.5 mph - N/A   Clear
9:53 AM 28.0 °F 22.8 °F 24.1 °F 85% 30.25 in 10.0 mi NW 4.6 mph - N/A   Clear
10:53 AM 36.0 °F 32.1 °F 25.0 °F 64% 30.26 in 10.0 mi NW 4.6 mph - N/A   Clear
11:53 AM 37.4 °F 32.8 °F 24.8 °F 60% 30.25 in 10.0 mi WNW 5.8 mph - N/A   Scattered Clouds
12:53 PM 39.0 °F 32.3 °F 27.0 °F 62% 30.25 in 10.0 mi West 10.4 mph - N/A   Scattered Clouds
1:53 PM 39.9 °F 35.1 °F 27.0 °F 60% 30.24 in 10.0 mi WNW 6.9 mph - N/A   Scattered Clouds
2:53 PM 39.9 °F 35.8 °F 27.0 °F 60% 30.22 in 10.0 mi NNW 5.8 mph - N/A   Mostly Cloudy
3:53 PM 39.9 °F 34.5 °F 27.0 °F 60% 30.21 in 10.0 mi NNW 8.1 mph - N/A   Mostly Cloudy
4:53 PM 39.9 °F 35.8 °F 28.0 °F 63% 30.21 in 10.0 mi NW 5.8 mph - N/A   Mostly Cloudy
5:53 PM 37.0 °F 31.6 °F 32.0 °F 82% 30.22 in 10.0 mi NW 6.9 mph - 0.00 in   Mostly Cloudy
6:53 PM 36.0 °F 29.0 °F 30.9 °F 82% 30.21 in 10.0 mi NW 9.2 mph - 0.00 in   Mostly Cloudy
7:53 PM 33.8 °F 28.6 °F 30.2 °F 87% 30.21 in 10.0 mi WNW 5.8 mph - N/A   Scattered Clouds
8:53 PM 33.1 °F 27.7 °F 28.9 °F 85% 30.21 in 10.0 mi NW 5.8 mph - N/A   Scattered Clouds
9:53 PM 33.1 °F 26.9 °F 27.0 °F 78% 30.22 in 10.0 mi NW 6.9 mph - N/A   Partly Cloudy
10:53 PM 32.0 °F 26.4 °F 26.1 °F 79% 30.22 in 10.0 mi NW 5.8 mph - N/A   Clear
11:53 PM 32.0 °F 24.8 °F 25.0 °F 75% 30.22 in 10.0 mi NW 8.1 mph - N/A   Partly Cloudy